Regional Weather Roundup
Issued by NWS Newport/Morehead, NC

Current Version | Previous Version | Graphics & Text | Print | Product List | Glossary Off
Versions: 1 2 3 4 5 6 7 8 9 10 11 12 13 14 15 16 17 18 19 20 21 22 23 24 25 26 27 28 29 30 31 32 33 34 35 36 37 38 39 40 41 42 43 44 45 46 47 48 49 50

000
ASUS42 KMHX 070625
RWRMHX
WEATHER ROUNDUP FOR EASTERN NORTH CAROLINA
NATIONAL WEATHER SERVICE NEWPORT/MOREHEAD CITY NC
100 AM EST SUN FEB 07 2016

NOTE: "FAIR" INDICATES FEW OR NO CLOUDS BELOW 12,000 FEET
WITH NO SIGNIFICANT WEATHER AND/OR OBSTRUCTIONS TO VISIBILITY

NCZ015>017-031-032-045>047-102-103-070700-
NORTH COAST

CITY           SKY/WX    TMP DP  RH WIND       PRES   REMARKS
EDENTON        CLOUDY    39  34  81 CALM      30.25S
ELIZABETH CITY CLOUDY    38  32  79 N9        30.23S
KITTY HAWK     CLOUDY    41  31  68 N10G16    30.20F
MANTEO         CLOUDY    42  33  72 NE14G20   30.21F

$$

NCZ045>047-081-094-103-104-070700-
CENTRAL COAST

CITY           SKY/WX    TMP DP  RH WIND       PRES   REMARKS
FRISCO         CLOUDY    45  38  76 NE13G24   30.16F
SWANQUARTER      N/A     41 N/A N/A N6G15     30.18S

$$

NCZ095-097-098-100-101-070700-
SOUTHERN COAST

CITY           SKY/WX    TMP DP  RH WIND       PRES   REMARKS
BEAUFORT       LGT RAIN  43  36  76 N12       30.18R
CEDAR ISLAND     N/A     45 N/A N/A N24G30    30.24S
JACKSONVILLE   LGT RAIN  40  33  76 N14       30.20F
PINEY ISLAND   CLOUDY   N/A N/A N/A MISG      30.17F
WILMINGTON     LGT RAIN  40  34  79 N14       30.15F


$$

NCZ011>013-027>030-043-044-078>080-089-090>093-098-070700-
COASTAL PLAIN

CITY           SKY/WX    TMP DP  RH WIND       PRES   REMARKS
AHOSKIE        CLOUDY    35  31  85 CALM      30.28R
CLINTON        LGT RAIN  39  33  78 NE7       30.20F
ELIZABETHTOWN  LGT RAIN  38  34  85 CALM      30.18F
GOLDSBORO      CLOUDY    41  27  56 N6        30.20F
GREENVILLE     CLOUDY    41  34  75 N6        30.26F
HAVELOCK       LGT RAIN  42  33  70 N17G24    30.22R
KENANSVILLE    LGT RAIN  38  32  78 CALM      30.20F
KINSTON        CLOUDY    41  32  70 N5        30.23F
NEW BERN       CLOUDY    42  32  67 N10       30.24R
RICHLANDS      CLOUDY    39  28  65 N9        30.19F
ROCKY MOUNT    CLOUDY    39  32  76 N3        30.25F
WASHINGTON     CLOUDY    40  31  72 CALM      30.25S
WHITEVILLE     LGT RAIN  38  35  87 N8        30.15F

$$

AMZ130-135-150-152-154-156-158-170-250-252-270-ANZ085-086-088-633-658-670-070700-
MARINE OBSERVATIONS

STATION/POSITION TIME  TEMP    WIND        PRES    WAVE   SWELL
                       AIR SEA DIR/SP/G            HT/PER HT/PER
                 (UTC) (F)     (DEG/KT/KT) (MB)    (FT/S) (FT/S)
CHESAPEAKE LIGHT 0600   40      10/ 12/ 13 1024.6
64 E VA BEACH    0550   44 53   20/ 17/ 19 1022.5    4/ 9   3/ 9
DUCK             0600   42 45   20/ 15/ 19 1022.5
2 E DUCK         0611      44                N/A     4/10   2/11
OREGON INLET     0600   43 46   10/ 11/ 20 1022.5
13E OREGON INLT  0600      46                N/A     6/11   3/11
HATTERAS CG      0600   45 51   10/ 23/ 25 1020.9
DIAMOND BUOY     0550   54 71   10/ 21/ 25 1020.3    6/10   3/10
CAPE LOOKOUT     NOT AVBL
BEAUFORT LAB     0600   43 49   10/ 16/ 21 1020.7
30 SE NEW RVR IN 0608   45 64              1018.4
30 SE NEW RVR IN 0525      64                N/A     7/ 6   2/11
27 SE WRIGHTSVLE NOT AVBL
5 SE WRIGHTSVLE  0508   44 53  360/ 23/ 31 1021.5
225 S CAPE HAT   0550   64 69   90/ 16/ 19   N/A     8/11   7/11
41 SE CHARLESTON 0550   50 63   10/ 31/ 39 1014.7   10/ 7

$$



USA.gov is the U.S. government's official web portal to all federal, state and local government web resources and services.